Wind_Speed
20 19 17 16 14 12 13 14 14 12 10 11 14 15 16 15 15 14 12 11 10 9 8 7 7 7 8 10 11 12 12 13 13 13 12 12 11 11 12 12 12 12 11 11 10 9 8 7 6
21 20 19 17 14 13 15 15 14 12 10 12 16 18 18 16 15 14 13 12 11 11 10 10 9 9 9 11 13 14 14 14 15 14 14 13 12 12 13 13 12 12 12 11 11 10 9 8 6
21 21 20 18 14 15 17 16 16 12 9 13 17 20 19 17 16 15 14 13 12 12 11 11 11 11 11 12 13 15 16 16 16 15 16 15 14 14 14 13 13 13 12 12 12 11 10 8 7
21 21 20 18 14 16 18 16 16 13 10 14 19 21 21 19 16 15 14 13 12 12 13 13 12 12 12 13 14 16 17 17 17 17 17 16 15 15 15 14 14 14 13 13 12 11 10 9 8
21 21 19 16 15 18 17 15 15 15 12 15 19 23 23 21 18 16 15 14 14 13 13 14 13 13 13 13 15 16 18 19 19 18 18 18 17 17 17 16 15 15 14 14 13 12 11 10 9
20 20 18 16 17 20 19 18 16 15 14 18 21 24 25 23 21 18 16 16 15 15 15 14 13 14 14 15 16 17 18 19 19 19 19 19 19 19 18 17 16 16 15 15 14 13 12 12 10
19 19 17 17 19 22 22 18 15 15 16 21 24 27 27 26 24 21 18 17 16 16 16 16 14 15 16 16 17 17 18 19 20 20 20 20 20 20 19 19 18 17 16 16 15 14 14 13 12
19 18 16 17 22 25 24 18 15 16 19 24 28 30 30 29 27 23 20 17 17 17 17 18 16 16 17 18 18 18 18 20 20 20 20 20 21 21 21 20 19 18 17 17 16 15 14 14 13
17 15 15 20 25 26 25 21 20 21 23 26 30 32 32 31 29 26 22 19 20 21 21 20 19 19 19 20 20 20 20 20 21 22 21 22 22 22 22 21 20 19 18 18 17 16 15 15 14
16 13 16 22 26 27 25 22 21 24 26 29 31 33 33 33 31 28 25 24 24 24 24 22 21 20 21 21 21 21 21 22 22 23 23 23 23 23 23 22 21 20 19 19 18 17 17 16 16
15 16 19 22 25 25 24 21 21 24 26 29 31 31 32 32 31 29 27 26 26 25 26 24 23 22 22 22 23 22 22 23 23 24 24 24 25 25 24 24 23 22 21 20 19 19 18 17 17
16 18 21 22 24 24 23 21 22 24 26 29 31 31 30 30 30 29 28 27 27 26 27 26 25 24 22 23 25 24 24 24 23 25 26 26 26 26 25 26 25 24 23 22 21 20 19 19 18
18 20 22 23 24 22 21 21 22 24 27 29 30 30 30 30 30 29 29 29 28 27 27 27 26 26 26 26 26 26 25 26 26 27 28 28 28 28 28 27 26 25 24 22 22 21 21 20 19
17 19 21 21 20 19 18 18 20 22 25 26 28 29 30 30 30 31 31 30 30 29 26 26 27 28 28 27 27 27 27 27 27 28 29 29 28 29 29 28 27 26 25 23 23 23 22 21 20
15 13 12 13 12 13 14 14 15 18 21 23 25 27 29 29 30 31 32 32 32 30 28 28 27 28 29 28 27 29 28 27 27 27 28 29 30 30 30 30 29 26 26 25 24 24 24 22 21
10 8 8 8 9 11 13 12 13 14 16 19 22 24 26 27 29 31 32 32 32 31 29 28 29 29 30 29 29 29 29 28 27 28 28 28 29 30 29 29 29 28 28 26 25 24 24 23 23
8 9 10 9 9 10 12 12 13 14 16 18 20 23 25 26 27 28 30 31 31 30 29 28 28 29 30 28 29 29 28 29 29 28 26 26 27 29 29 27 28 27 27 26 25 25 25 25 24
11 13 14 12 10 11 12 12 13 16 19 20 21 23 24 25 27 28 29 30 30 29 28 27 27 28 28 28 29 29 28 29 30 29 27 24 24 26 25 25 26 25 25 25 24 25 24 25 25
16 16 14 11 10 12 12 14 17 20 22 22 24 25 25 26 28 28 29 30 30 29 29 27 27 27 28 28 29 29 28 28 28 26 25 25 22 22 23 23 24 23 23 25 24 25 25 25 25
16 14 12 11 13 14 16 19 21 22 24 26 26 26 26 28 28 30 30 31 31 31 28 27 28 28 29 29 30 30 29 26 26 25 24 23 22 22 22 23 24 23 22 23 24 24 25 26 26
12 13 12 13 16 20 22 24 25 26 26 27 27 27 28 28 28 29 30 31 32 32 30 29 29 29 28 30 30 32 31 26 24 24 24 22 21 22 21 22 23 22 22 22 23 24 25 25 26
12 12 13 16 18 21 24 27 27 27 27 28 27 27 27 29 29 30 30 31 31 31 31 30 30 29 29 30 31 31 30 29 26 23 22 22 21 20 20 19 19 20 20 22 23 24 25 26 26
12 13 14 15 18 20 22 25 25 26 26 27 28 29 29 29 28 28 29 30 30 30 30 29 29 29 28 28 29 29 29 29 28 24 21 20 20 19 18 17 16 18 18 20 21 23 25 26 27
14 15 16 17 18 19 18 21 22 22 24 26 27 28 28 28 27 27 27 27 28 27 27 27 27 28 29 28 27 27 27 27 27 25 22 20 19 18 17 17 18 18 18 19 20 21 22 24 26
14 16 16 16 17 17 17 20 20 20 22 24 25 25 25 25 25 25 25 25 24 25 25 25 26 26 27 26 26 27 27 26 26 26 24 22 21 20 20 19 19 20 20 21 21 22 23 25 26
13 14 16 17 17 17 17 19 19 19 21 22 21 21 21 21 22 22 22 23 23 23 23 24 24 24 24 24 24 25 25 25 25 26 25 23 22 22 23 22 22 21 21 22 22 23 24 24 25
14 15 15 17 18 18 18 18 18 19 21 20 19 18 18 18 18 20 21 22 22 21 21 22 23 23 23 24 24 24 22 22 23 25 24 22 21 21 21 22 21 21 22 22 22 23 23 24 25
13 14 15 16 18 19 18 18 18 18 19 19 16 14 14 15 16 18 19 20 20 19 19 20 21 22 22 23 23 23 23 23 22 23 24 23 22 22 21 20 21 22 22 21 22 23 24 25 25
14 15 16 17 18 19 20 18 17 18 18 17 15 14 14 14 14 16 18 19 19 18 18 18 19 20 21 21 22 22 22 22 22 22 23 23 23 22 21 20 20 21 21 22 22 22 22 23 23
15 17 17 17 17 18 19 19 17 18 18 16 14 15 15 13 13 15 17 18 18 18 18 17 17 18 19 20 20 21 21 21 21 21 22 22 22 21 21 21 21 21 21 22 22 23 23 23 24
Wind_Direction
248 247 245 242 235 225 216 212 219 226 238 256 266 269 274 289 304 309 305 298 295 295 289 281 275 266 256 250 244 243 247 249 252 255 261 266 271 280 287 291 295 296 297 296 294 289 283 277 273
245 244 243 239 230 213 209 213 220 228 246 261 267 269 273 286 298 302 299 293 289 286 282 278 273 268 263 255 250 250 252 252 256 258 263 266 270 277 281 286 291 293 293 293 291 287 280 274 271
243 242 241 237 223 205 207 215 225 228 248 265 271 269 272 282 292 299 296 288 285 280 275 274 274 270 265 261 255 253 257 258 258 260 263 265 268 272 276 281 285 288 288 288 287 284 277 272 269
242 241 240 235 217 201 206 216 227 229 244 265 271 268 271 278 289 297 295 290 285 278 272 269 271 270 266 261 259 258 258 259 260 260 263 265 267 269 272 276 278 281 283 283 282 280 274 268 266
240 239 237 229 209 196 198 211 224 232 244 261 267 269 272 278 286 290 290 290 285 278 271 267 266 267 265 259 259 259 258 258 257 258 261 263 265 267 269 271 273 275 277 278 277 276 270 264 263
240 237 232 218 197 189 193 206 221 232 241 253 263 268 273 279 284 287 285 284 282 277 272 265 263 263 260 259 260 260 258 256 255 256 259 261 263 263 265 267 269 269 272 273 273 271 266 261 261
238 235 226 211 192 188 193 205 223 237 242 251 260 267 271 276 281 283 281 278 277 275 272 266 260 258 258 258 259 258 257 256 256 255 257 259 262 262 262 264 266 267 268 269 268 266 263 259 258
235 233 222 205 193 192 196 202 217 227 241 252 260 266 271 276 278 279 275 273 273 269 268 263 259 257 256 256 254 255 256 256 255 255 257 258 260 261 261 262 263 265 265 263 263 262 259 256 255
232 230 220 203 196 198 201 203 215 221 231 244 254 263 269 273 276 276 272 268 269 264 264 260 254 253 254 253 252 253 253 254 255 255 256 256 259 260 260 261 261 262 261 260 258 258 255 252 253
227 216 210 205 203 206 209 210 220 227 231 239 248 257 263 268 271 271 269 266 264 263 261 259 255 252 254 253 252 252 253 253 255 256 256 256 257 258 258 259 260 261 259 258 255 254 252 250 251
223 209 208 210 210 215 218 217 225 233 239 245 251 257 261 264 265 265 264 262 262 262 261 261 257 257 255 252 251 250 251 252 253 254 255 255 256 257 257 256 256 257 256 255 253 253 250 248 248
222 214 214 215 217 223 227 225 227 236 243 249 256 262 262 262 262 262 262 262 263 262 262 260 257 257 255 255 252 250 250 251 252 253 253 254 255 256 257 255 254 254 254 254 253 252 249 248 247
226 221 219 221 225 232 236 233 234 241 245 250 255 260 262 264 264 263 263 263 264 264 259 257 258 257 256 258 252 250 251 251 251 252 253 252 255 256 255 253 252 252 252 251 250 250 248 247 247
236 232 227 227 231 238 244 243 242 242 244 248 252 255 259 262 265 267 268 266 268 265 257 255 257 256 254 255 254 249 250 250 251 252 252 251 252 255 254 252 250 250 250 251 250 248 246 246 247
242 241 234 231 236 245 248 247 247 245 245 247 248 251 256 260 265 267 269 270 270 269 265 260 257 256 253 254 254 250 250 252 254 254 252 252 248 249 254 252 249 248 249 251 249 248 246 246 247
237 230 212 221 236 250 258 251 253 255 257 255 253 254 258 262 265 266 267 270 271 269 266 263 259 260 254 254 254 254 252 251 252 253 251 250 248 248 252 251 247 246 248 247 247 247 244 244 246
214 200 201 211 234 251 261 259 265 271 273 271 266 264 263 265 267 270 270 271 271 270 267 263 262 259 254 256 255 256 256 252 252 252 251 250 246 245 245 247 246 245 244 242 245 243 243 244 246
204 207 210 215 238 253 265 270 276 278 277 275 273 270 269 272 273 273 271 270 272 271 269 266 263 257 255 256 256 254 255 255 256 253 254 252 247 242 241 245 242 240 241 241 245 242 243 243 244
218 222 225 232 252 260 265 270 271 273 276 277 275 274 271 276 278 276 274 271 272 272 270 267 264 261 261 259 260 257 256 255 253 247 250 249 248 245 243 244 241 241 240 242 245 245 244 243 244
225 233 240 240 244 252 256 262 265 268 273 275 275 277 276 277 276 277 275 272 272 273 272 267 265 263 262 260 258 259 259 256 252 249 249 249 246 246 245 244 243 239 242 248 248 248 246 245 246
237 251 248 243 243 245 251 257 262 266 267 269 272 275 275 275 273 275 277 275 274 274 273 272 268 264 262 261 259 260 261 258 256 250 247 249 248 244 243 244 243 240 242 246 247 250 247 246 248
247 249 253 250 249 249 255 261 263 266 266 268 272 274 276 278 274 276 275 274 273 273 270 271 268 264 264 263 259 259 259 257 256 253 250 251 251 252 249 249 245 243 243 245 247 249 248 250 250
252 254 255 258 259 259 262 267 268 269 270 272 274 277 277 280 276 274 271 270 271 273 271 269 268 264 264 265 261 260 259 257 255 255 249 248 252 253 251 251 251 247 249 251 252 253 252 253 253
255 257 259 264 267 268 270 271 273 276 276 276 276 276 277 278 277 272 269 269 271 271 270 268 269 266 265 265 263 259 258 257 255 254 254 253 252 250 253 254 253 254 257 258 257 256 256 255 254
254 260 266 266 270 272 273 275 279 282 285 284 283 276 277 275 273 272 270 269 271 272 270 270 270 268 265 263 262 259 258 256 255 254 252 253 251 251 252 254 256 256 256 258 260 259 259 258 258
252 262 269 276 279 279 278 283 289 292 296 293 288 282 279 272 270 271 271 270 271 272 270 269 271 268 266 262 259 257 258 257 255 254 253 253 254 254 255 256 257 257 258 259 262 263 262 263 263
258 265 274 280 283 284 283 286 293 299 303 299 291 285 280 278 269 269 269 270 272 272 272 271 270 269 268 266 263 260 260 258 255 253 255 255 258 257 255 256 258 259 261 263 264 262 262 263 263
263 265 270 275 282 284 288 289 296 303 309 306 300 294 285 282 273 270 269 268 273 275 273 272 269 269 268 266 266 264 263 261 260 258 256 256 259 257 257 261 262 263 265 267 265 262 262 263 265
264 268 271 274 283 289 293 294 301 305 308 308 303 302 298 290 279 273 272 271 273 273 274 273 271 270 268 265 264 262 262 261 259 259 259 258 258 260 261 262 265 266 267 268 267 265 266 267 268
263 267 271 276 283 291 296 301 303 305 309 309 305 301 302 293 282 279 276 274 272 270 272 272 270 268 265 262 261 259 258 257 256 256 257 258 259 261 262 263 265 266 268 270 270 270 270 269 271
Height
5879 5880 5882 5884 5887 5888 5887 5888 5888 5888 5889 5890 5890 5890 5890 5892 5893 5896 5894 5892 5892 5892 5893 5893 5894 5895 5896 5897 5898 5899 5900 5900 5901 5901 5902 5902 5902 5902 5902 5902 5902 5901 5901 5900 5900 5899 5898 5898 5897
5875 5876 5879 5881 5883 5884 5885 5885 5885 5885 5886 5888 5887 5887 5888 5889 5891 5891 5890 5890 5891 5891 5891 5892 5893 5894 5895 5896 5897 5898 5898 5899 5900 5900 5901 5901 5901 5901 5901 5901 5901 5900 5900 5899 5898 5898 5897 5897 5897
5871 5872 5875 5877 5880 5881 5882 5883 5883 5882 5884 5885 5884 5884 5885 5887 5888 5889 5889 5889 5889 5889 5890 5890 5891 5892 5893 5894 5895 5896 5896 5897 5898 5899 5899 5899 5900 5900 5900 5900 5899 5899 5898 5898 5897 5897 5896 5896 5896
5867 5869 5871 5874 5877 5878 5879 5879 5879 5878 5880 5881 5881 5881 5882 5884 5886 5887 5886 5886 5886 5887 5887 5888 5889 5890 5890 5892 5893 5893 5894 5895 5896 5897 5897 5897 5898 5898 5898 5898 5898 5898 5897 5897 5896 5895 5895 5895 5895
5863 5865 5867 5870 5872 5874 5876 5875 5875 5874 5876 5878 5877 5877 5878 5881 5883 5884 5884 5884 5884 5884 5885 5885 5886 5887 5888 5889 5890 5891 5891 5892 5893 5894 5895 5895 5895 5896 5896 5896 5896 5896 5895 5895 5894 5894 5893 5893 5893
5859 5861 5864 5865 5868 5870 5871 5871 5870 5870 5872 5874 5874 5874 5875 5877 5879 5881 5881 5881 5881 5881 5882 5882 5882 5883 5884 5885 5886 5887 5888 5889 5890 5890 5891 5892 5892 5893 5893 5893 5893 5893 5893 5893 5893 5892 5892 5892 5892
5855 5857 5859 5862 5864 5866 5866 5866 5867 5867 5869 5870 5871 5871 5871 5873 5875 5877 5878 5878 5878 5878 5878 5878 5879 5880 5881 5882 5882 5883 5884 5885 5886 5887 5888 5888 5889 5889 5890 5890 5890 5890 5890 5891 5890 5890 5890 5890 5890
5850 5854 5856 5859 5860 5861 5861 5861 5863 5865 5867 5867 5867 5867 5868 5869 5871 5873 5874 5874 5874 5874 5874 5874 5875 5876 5877 5878 5878 5879 5880 5881 5882 5883 5884 5884 5885 5885 5886 5886 5887 5887 5887 5888 5888 5888 5888 5888 5888
5846 5851 5853 5855 5855 5856 5855 5857 5860 5862 5863 5864 5864 5864 5865 5865 5866 5868 5869 5870 5870 5870 5870 5870 5871 5872 5873 5874 5874 5875 5876 5877 5878 5879 5879 5880 5880 5881 5882 5882 5883 5883 5883 5884 5884 5885 5885 5885 5885
5843 5846 5849 5850 5851 5851 5851 5852 5855 5858 5860 5861 5861 5861 5861 5861 5861 5862 5864 5865 5866 5866 5866 5866 5866 5868 5869 5870 5870 5871 5872 5872 5873 5874 5875 5875 5876 5876 5877 5878 5879 5879 5880 5880 5881 5881 5881 5882 5883
5840 5842 5844 5845 5847 5847 5848 5849 5851 5854 5856 5856 5857 5857 5857 5857 5857 5857 5858 5860 5861 5861 5861 5862 5862 5863 5864 5865 5866 5866 5866 5867 5868 5868 5869 5870 5871 5871 5872 5873 5874 5875 5875 5876 5877 5877 5878 5879 5879
5836 5838 5839 5841 5842 5844 5845 5846 5848 5849 5851 5852 5852 5852 5851 5852 5851 5852 5853 5854 5855 5855 5855 5856 5858 5859 5860 5860 5860 5861 5861 5862 5862 5863 5863 5864 5865 5866 5867 5868 5869 5870 5871 5872 5873 5873 5874 5875 5876
5832 5834 5835 5836 5837 5839 5841 5843 5844 5845 5846 5846 5846 5846 5846 5845 5846 5847 5847 5848 5849 5849 5849 5851 5852 5853 5854 5854 5854 5855 5856 5857 5857 5857 5858 5859 5860 5861 5861 5862 5863 5865 5866 5867 5868 5869 5870 5871 5872
5829 5830 5832 5833 5834 5835 5837 5839 5840 5840 5840 5841 5841 5841 5840 5840 5840 5840 5841 5843 5843 5842 5842 5844 5846 5847 5847 5847 5848 5849 5850 5850 5850 5851 5851 5852 5854 5855 5856 5857 5858 5859 5860 5862 5863 5864 5865 5867 5868
5826 5828 5829 5830 5830 5831 5833 5835 5835 5835 5835 5836 5836 5836 5836 5836 5835 5835 5836 5836 5837 5836 5837 5839 5840 5841 5841 5841 5842 5843 5844 5844 5844 5844 5845 5846 5847 5848 5849 5851 5852 5853 5854 5856 5858 5859 5860 5862 5864
5823 5825 5826 5827 5827 5828 5830 5830 5830 5829 5830 5831 5831 5831 5831 5831 5830 5830 5830 5830 5830 5830 5831 5833 5833 5834 5835 5835 5835 5836 5837 5838 5839 5838 5839 5840 5841 5842 5843 5844 5846 5847 5849 5850 5852 5854 5855 5857 5858
5820 5821 5822 5823 5824 5824 5824 5825 5825 5825 5825 5825 5826 5825 5825 5826 5825 5825 5825 5824 5823 5823 5824 5826 5827 5827 5828 5829 5829 5830 5831 5832 5832 5831 5832 5833 5834 5835 5837 5838 5839 5841 5843 5844 5846 5848 5849 5851 5852
5816 5818 5818 5819 5819 5820 5820 5819 5820 5820 5820 5820 5820 5820 5820 5820 5820 5820 5819 5818 5817 5817 5818 5819 5819 5819 5820 5821 5821 5823 5825 5826 5826 5826 5826 5827 5828 5829 5830 5832 5833 5835 5837 5839 5840 5842 5843 5845 5847
5813 5814 5815 5815 5816 5816 5815 5815 5816 5816 5815 5815 5815 5815 5815 5815 5814 5814 5813 5812 5811 5811 5812 5814 5814 5814 5815 5816 5816 5816 5818 5819 5819 5820 5821 5822 5823 5823 5825 5826 5829 5830 5831 5834 5835 5836 5838 5840 5841
5809 5810 5811 5812 5812 5812 5812 5811 5812 5811 5811 5810 5810 5810 5809 5809 5808 5807 5806 5805 5805 5803 5804 5806 5807 5807 5808 5810 5810 5811 5810 5811 5813 5814 5815 5816 5817 5818 5819 5821 5823 5825 5826 5828 5830 5831 5832 5834 5835
5806 5807 5807 5808 5808 5808 5808 5808 5807 5807 5806 5805 5804 5804 5803 5802 5801 5801 5800 5799 5799 5798 5798 5799 5799 5801 5802 5803 5803 5804 5803 5804 5806 5807 5808 5809 5811 5813 5814 5816 5817 5819 5821 5822 5824 5825 5826 5828 5829
5802 5803 5803 5803 5804 5804 5804 5802 5802 5801 5800 5799 5798 5797 5796 5795 5795 5794 5793 5792 5792 5791 5791 5792 5792 5793 5794 5795 5796 5797 5798 5799 5801 5802 5803 5804 5806 5807 5809 5810 5812 5813 5815 5817 5818 5819 5821 5822 5822
5798 5799 5799 5799 5799 5799 5799 5798 5798 5796 5795 5794 5792 5791 5790 5789 5788 5787 5786 5786 5785 5785 5784 5785 5786 5787 5787 5788 5789 5791 5792 5794 5796 5797 5799 5800 5801 5802 5804 5805 5807 5808 5809 5811 5812 5814 5815 5816 5816
5794 5795 5795 5795 5795 5795 5795 5793 5792 5790 5789 5788 5785 5784 5783 5782 5781 5780 5779 5779 5779 5778 5778 5779 5781 5781 5782 5782 5784 5785 5787 5788 5790 5792 5794 5795 5796 5798 5799 5800 5802 5802 5804 5805 5806 5807 5808 5809 5810
5790 5791 5791 5791 5790 5790 5789 5788 5787 5786 5784 5781 5779 5777 5776 5775 5775 5774 5773 5773 5773 5773 5773 5774 5775 5775 5776 5777 5778 5779 5781 5783 5785 5787 5789 5790 5791 5792 5794 5795 5796 5797 5798 5799 5800 5801 5802 5802 5803
5787 5787 5787 5787 5786 5785 5784 5783 5783 5780 5778 5775 5773 5772 5771 5769 5768 5768 5768 5767 5768 5767 5767 5768 5768 5769 5770 5771 5772 5774 5775 5777 5779 5781 5783 5784 5785 5787 5788 5789 5790 5791 5792 5793 5794 5795 5795 5796 5796
5783 5783 5783 5783 5781 5780 5780 5779 5777 5775 5773 5770 5768 5766 5765 5764 5763 5763 5763 5763 5762 5762 5762 5762 5763 5764 5764 5765 5766 5767 5769 5771 5772 5774 5776 5778 5779 5781 5782 5783 5784 5785 5786 5786 5787 5787 5788 5789 5789
5780 5779 5779 5779 5777 5776 5776 5774 5773 5771 5768 5765 5763 5761 5760 5759 5759 5759 5758 5758 5758 5757 5757 5757 5757 5758 5759 5760 5761 5762 5764 5765 5767 5769 5770 5771 5774 5775 5776 5777 5778 5779 5780 5780 5781 5781 5781 5781 5782
5776 5776 5775 5774 5773 5772 5771 5772 5769 5767 5764 5762 5760 5759 5757 5755 5754 5754 5754 5754 5753 5753 5752 5752 5752 5752 5753 5754 5755 5757 5758 5760 5761 5763 5764 5766 5767 5769 5770 5771 5772 5773 5774 5774 5774 5774 5774 5775 5775
5772 5771 5771 5771 5770 5768 5766 5768 5764 5762 5760 5757 5756 5755 5753 5751 5750 5750 5749 5748 5748 5748 5747 5747 5747 5747 5748 5749 5750 5751 5752 5754 5755 5757 5758 5760 5761 5763 5764 5765 5766 5767 5767 5767 5768 5768 5768 5768 5769